COSMOS 1275 DEB, 42103

Orbit data source: Space-Track

COSMOS 1275 DEB, 42103 is space debris in LEO originally from a launch on Thu, 04 Jun 1981 UTC launched from the Plesetsk Missile And Space Complex (PKMTR). Debris objects in space refer to the collection of defunct objects orbiting the Earth. Examples of debris include non-operational satellites, rocket bodies, and fragments generated from explosions, collisions, or faulty payload assembly.

Loading next visibility...
COSMOS 1275 DEB details
Identifier
42103, 1981-053PP
Orbit
LEO
Last TLE update2 months ago
Origin
Flag of CISGUKOS (CIS)
ManufacturerUnknown
MissionSpacecraft
Bus & MotorUnknown
MassUnknown
Launch date (UTC)
1981-06-04 (43 years ago)
Launch vehicleUnknown
Launch site
Plesetsk Missile And Space Complex (PKMTR)
Object type
Payload
Rocket body
Debris
Shape & HBRUnknown
Radar Cross SectionSmall (<0.1 m²)

Expand to show TLE details & history

TLE from 2 months ago
0 COSMOS 1275 DEB
1 42103U 81053PP  24281.66310372  .00014865  00000-0  81451-2 0  9997
2 42103  83.1746  55.4990 0027609 110.8475 249.5663 14.11536939557614
Epoch: 2024-10-07T15:54Z
Definitive object data (Epoch: 2024-10-07T15:54:52.161Z)
Latitude0.00001°
Longitude159.99418°
Altitude864.095 km
Speed7.417 km/s
True Right ascension03h 41m 59s
True Declination0° 00' 00"
Sunlit
Object was in full shadow at TLE epoch
Visualization TLE readout
Latitude-51.93712°
Longitude-53.70672°
Altitude862.714 km
Speed7.423 km/s
Apparent Right ascension15h 34m 22s
Apparent Declination-50° 17' 27"
Sunlit
Object is in daylight
Visualization observer readout
Local Sidereal Time05:29:22
Azimuth126.887° SE
Elevation-67.404°
Doppler factor1
Orbital elements
Apogee altitude871.166 km
Perigee altitude831.247 km
Semi-major axis7,229.344 km
Eccentricity0.0027609
Inclination83.1746°
RAAN55.499°
Arg. of periapsis110.8475°
True anomaly249.27019°
Mean anomaly249.5663°
Eccentric anomaly249.41821°
Mean motion3.53098 °/min
BSTAR0.0081451
Orbital period101.95 mins
Loading maneuver chart data...
Loading historical data...
Loading historical data...
Loading historical data...
Loading historical data...
Loading historical data...
Loading historical data...
Loading historical data...

COSMOS 1275 DEB Visibility forecast

Observer location: undefined°, undefined

Span
Click to sort rows by Start time (UTC) header in descending order
Start Az.
Max El. time (UTC)
Max El. Az.
Max El.
End time (UTC)
End Az.
10 mins2024-12-02 13:59:15.414Z7.291° NNE2024-12-02 14:04:15.414Z70.7° E34.208°2024-12-02 14:09:15.414Z146.739° SSE
6 mins2024-12-02 15:44:15.414Z310.312° NW2024-12-02 15:47:15.414Z267.745° W21.637°2024-12-02 15:50:15.414Z230.822° WSW
9 mins2024-12-03 03:08:15.414Z174.657° S2024-12-03 03:12:15.414Z81.334° E43.553°2024-12-03 03:17:15.414Z11.451° NNE
|